#timestamp,LO_Frequency,Hit,StdDev 
1622289615.6,286047001.1,N
1622289635.5,286047000.1,N
1622289655.3,286047001.6,N
1622289675.1,286047001.9,N
1622289695.9,286046999.8,N
1622289715.7,286047001.5,N
1622289735.6,286047002.5,N
1622289755.4,286046999.8,N
1622289775.2,286047000.3,N
1622289795.1,286047000.7,N
1622289796.0,286047000.7,N
1622289815.8,286046998.6,N
1622289835.6,286047000.5,N
1622289855.5,286047002.5,N
1622289875.3,286046996.6,Y
1622289895.2,286046996.0,P
1622289915.0,286046995.8,N
1622289915.9,286046995.8,N
1622289935.8,286046998.8,N
1622289955.6,286046999.5,N
1622289975.4,286046999.1,N
1622289995.3,286046998.1,N
1622290015.1,286046998.9,N
1622290035.8,286047001.1,N
1622290055.7,286046999.9,N
1622290075.5,286046999.8,N
1622290095.4,286047003.9,N
1622290115.2,286047002.6,N
1622290135.1,286047004.1,N
1622290136.0,286047004.1,N
1622290155.8,286047005.6,N
1622290175.6,286047003.4,N
1622290195.5,286047003.9,N
1622290215.3,286047004.1,N
1622290235.1,286047004.3,N
1622290255.9,286047002.5,N
1622290275.7,286047003.0,N
1622290295.6,286047003.0,N
1622290315.4,286047005.5,N
1622290335.2,286047005.4,N
1622290355.1,286047003.5,N
1622290356.0,286047003.5,N
1622290375.8,286047003.2,N
1622290395.6,286047001.7,N
1622290415.5,286047004.9,N
1622290435.3,286047003.2,N
1622290455.2,286047005.3,N
1622290475.0,286047003.8,N
1622290475.9,286047003.8,N
1622290495.8,286047002.4,N
1622290515.6,286047005.1,N
1622290535.4,286047005.4,N
1622290555.3,286047004.9,N
1622290575.1,286047005.9,Y
1622290595.8,286047001.2,P
1622290615.7,286047001.1,N
1622290635.5,286047000.5,N
1622290655.4,286047000.1,N
1622290675.2,286046996.7,N
1622290695.0,286046998.9,N
1622290695.9,286046998.9,N
1622290715.8,286047000.6,N
1622290735.6,286047001.0,N
1622290755.4,286046999.1,N
1622290775.3,286046999.1,N
1622290795.1,286046998.9,N
1622290815.9,286046999.3,N
1622290835.7,286046999.4,N
1622290855.5,286046997.0,N
1622290875.4,286046997.0,N
1622290895.2,286046998.9,N
1622290915.0,286047001.0,N
1622290915.9,286047001.0,N
1622290935.8,286046998.1,N
1622290955.6,286046996.8,N
1622290975.5,286046997.9,N
1622290995.3,286046999.6,N
1622291015.1,286047001.1,N
1622291035.9,286047001.3,N
1622291055.7,286047002.6,N
1622291075.5,286046998.9,N
1622291095.4,286046999.4,N
1622291115.2,286047000.2,N
1622291135.1,286046998.2,N
1622291136.0,286046998.2,N
1622291155.8,286046998.2,N
1622291175.6,286047000.0,N
1622291195.5,286046998.7,N
1622291215.3,286046998.8,N
1622291235.2,286047001.2,N
1622291255.9,286046998.6,N
1622291275.7,286047000.2,N
1622291295.6,286047000.9,N
1622291315.4,286047000.1,N
1622291335.3,286047001.1,N
1622291355.1,286047000.9,N
1622291356.0,286047000.9,N
1622291375.8,286047002.8,N
1622291395.7,286046999.7,N
1622291415.5,286047000.7,N
1622291435.3,286047000.6,N
1622291455.2,286047000.5,N
1622291475.0,286047000.2,N
1622291475.9,286047000.2,N
1622291495.8,286047000.8,N
1622291515.6,286046998.7,N
1622291535.4,286046997.1,N
1622291555.3,286046995.1,Y
1622291575.1,286046998.0,P
1622291595.9,286046997.9,N
1622291615.7,286046999.2,N
1622291635.5,286046996.8,Y
1622291655.4,286046996.7,P
1622291675.2,286046997.4,N
1622291695.0,286046996.9,P
1622291695.9,286046996.9,Y
1622291715.8,286046999.3,P
1622291735.6,286047000.5,N
1622291755.5,286046999.8,N
1622291775.3,286047000.4,N
1622291795.1,286047002.4,N
1622291815.9,286047001.4,N
1622291835.7,286046999.8,N
1622291855.5,286047001.0,N
1622291875.4,286047000.0,N
1622291895.2,286047004.2,Y
1622291915.1,286047002.3,P
1622291916.0,286047002.3,N
1622291935.8,286047005.5,P
1622291955.6,286047003.1,N
1622291975.5,286047005.4,Y
1622291995.3,286047002.7,P
1622292015.1,286046998.6,P
1622292035.9,286046999.9,N
1622292055.7,286047002.4,N
1622292075.6,286047003.8,N
1622292095.4,286047002.6,N
1622292115.2,286047002.2,N
1622292135.1,286047000.4,N
1622292136.0,286047000.4,N
1622292155.8,286047002.6,N
1622292175.6,286047000.2,N
1622292195.5,286047000.6,N
1622292215.3,286046999.8,N
1622292235.2,286047000.4,N
1622292255.9,286047000.4,N
1622292275.7,286046998.2,N
1622292295.6,286046998.8,N
1622292315.4,286046998.8,N
1622292335.2,286046999.4,N
1622292355.1,286047000.4,N
1622292356.0,286047000.4,N
1622292375.8,286047001.8,N
1622292395.7,286047001.5,N
1622292415.5,286047001.0,N
1622292435.3,286047000.7,N
1622292455.2,286047001.1,N
1622292475.0,286047000.0,N
1622292475.9,286047000.0,N
1622292495.8,286046998.2,N
1622292515.6,286046998.3,N
1622292535.4,286046998.9,N
1622292555.3,286046998.1,N
1622292575.1,286047001.0,N
1622292595.8,286046998.7,N
1622292615.7,286046998.9,N
1622292635.5,286047001.1,N
1622292655.4,286047000.3,N
1622292675.2,286047000.1,N
1622292695.0,286047002.4,N
1622292695.9,286047002.4,N
1622292715.8,286047003.1,N
1622292735.6,286047001.3,N
1622292755.5,286047003.8,N
1622292775.3,286047002.5,N
1622292795.1,286047005.8,Y
1622292815.9,286047007.6,P
1622292835.7,286047005.8,N
1622292855.6,286047004.9,N
1622292875.4,286047004.6,N
1622292895.2,286047007.4,Y
1622292915.1,286047001.3,P
1622292916.0,286047001.3,N
1622292935.8,286046999.9,N
1622292955.7,286047000.5,N
1622292975.5,286046998.5,N
1622292995.3,286046999.3,N
1622293015.2,286046998.6,N
1622293035.0,286047000.6,N
1622293035.9,286047000.6,N
1622293055.7,286046998.6,N
1622293075.6,286046998.8,N
1622293095.4,286046998.4,N
1622293115.3,286046999.5,N
1622293135.1,286046996.6,N
1622293155.8,286046998.7,N
1622293175.7,286047002.2,N
1622293195.5,286047001.6,N
